Theta_e
317 319 321 323 323 323 320 320 319 319 320 319 318 315 313 312 309 307 305 303 301 299 297 296 295 295 294 293 293 293 293 294 294 293 293 291 290 290 290 290 290 291 291
314 316 317 318 317 316 315 317 315 314 312 311 309 306 304 301 299 298 297 295 295 294 294 293 293 292 292 292 292 291 291 290 290 290 289 289 288 288 288 288 288 288 288
310 311 311 311 312 312 313 311 309 306 303 301 300 299 296 295 295 294 294 294 293 293 292 292 291 291 291 290 290 289 288 288 288 287 287 287 287 287 287 287 287 287 287
306 306 307 306 307 307 306 304 301 299 297 296 295 294 294 294 293 293 293 292 292 291 290 290 290 289 289 288 287 287 287 287 287 287 287 287 287 287 287 287 286 286 287
303 303 302 301 301 300 298 296 295 295 294 294 293 293 293 292 292 291 290 290 290 289 289 289 288 288 287 286 286 286 286 286 286 286 286 286 286 286 286 286 286 287 287
299 298 297 296 296 295 294 294 293 293 293 293 292 291 290 290 290 290 290 289 289 289 288 288 287 286 284 285 285 285 286 286 285 285 285 286 286 286 285 286 286 287 287
297 295 294 294 294 293 293 292 292 292 291 290 289 289 289 289 289 289 289 288 288 288 287 286 286 285 285 285 285 285 285 285 286 286 286 285 285 285 285 286 285 285 285
294 293 293 292 292 292 292 291 290 289 289 289 288 288 288 288 288 288 288 287 287 286 285 285 285 285 285 285 285 285 285 285 285 286 285 285 285 286 285 284 284 284 284
292 292 292 292 291 291 290 288 288 288 288 288 288 288 288 287 287 286 286 286 285 285 285 285 285 285 285 285 285 285 285 285 285 285 285 285 284 284 284 284 283 283 282
291 291 291 291 291 289 288 288 288 287 288 287 287 287 286 286 286 286 286 285 285 285 285 284 284 284 285 285 285 286 285 285 286 285 284 283 283 283 283 283 283 282 281
291 290 289 288 288 287 287 287 287 287 286 286 285 284 285 284 284 284 284 284 284 285 284 283 283 284 285 285 285 285 285 286 286 284 283 282 283 283 282 282 282 282 281
290 288 287 286 286 286 286 286 285 285 284 284 284 284 283 283 283 283 283 283 284 283 283 283 283 284 284 284 284 284 285 286 285 284 282 282 282 282 282 281 281 281 280
287 285 285 285 285 285 285 285 284 283 283 284 284 283 282 282 282 282 282 282 282 282 282 283 283 282 282 282 282 283 284 285 284 283 282 281 282 281 281 281 281 280 279
286 285 285 285 284 283 283 282 283 282 283 283 283 282 281 281 281 282 281 282 281 281 282 281 281 280 280 280 280 280 280 281 280 280 281 281 280 280 280 280 279 279 278
284 283 283 283 282 282 281 281 282 282 282 282 281 281 281 280 280 281 281 281 281 280 280 279 279 279 278 277 277 277 277 277 276 276 277 278 279 278 278 278 279 279 278
283 283 282 281 281 280 281 280 279 280 280 279 279 279 279 279 279 279 279 279 278 277 277 277 276 275 274 273 273 273 274 273 273 274 275 275 275 275 276 277 277 278 278
284 283 281 280 280 280 280 280 280 278 277 277 278 278 278 278 277 277 276 276 276 276 275 275 273 272 271 271 271 270 270 271 271 271 272 272 273 273 274 275 276 276 277
281 282 281 280 281 280 280 280 279 279 279 278 277 277 276 276 275 275 274 275 274 274 273 272 272 271 271 270 270 270 269 270 270 269 270 270 271 271 271 273 274 275 276
280 280 279 279 279 279 279 279 278 278 278 278 276 276 275 274 273 273 272 272 273 272 272 271 270 270 270 269 269 269 268 268 268 268 269 269 269 269 270 270 271 272 273
279 279 279 278 278 277 277 276 275 276 276 276 275 274 273 272 272 272 271 271 271 270 270 270 270 269 269 268 268 268 268 268 268 267 267 268 268 268 268 268 269 270 272
278 278 277 277 277 276 276 275 275 274 274 273 274 272 272 271 271 271 270 270 270 270 269 269 269 268 268 268 268 268 267 267 267 267 267 267 267 267 267 267 268 269 270
277 277 276 276 276 275 274 273 273 272 272 271 271 271 269 270 269 269 269 269 268 268 268 268 269 268 268 268 267 267 267 267 267 266 266 266 265 266 265 265 266 266 267
275 275 274 274 274 273 272 271 271 270 270 270 269 269 269 268 268 268 268 268 268 268 268 267 267 268 267 267 267 266 266 266 265 264 264 264 264 264 265 265 265 265 265
275 274 274 273 272 271 270 270 270 269 269 268 268 268 268 268 267 267 267 267 267 268 267 267 266 266 266 266 265 265 264 264 264 264 264 263 263 263 264 264 265 265 264
273 273 272 271 270 270 269 268 268 268 267 267 267 267 267 267 267 267 267 267 266 266 267 266 265 265 265 265 265 265 265 264 265 264 264 263 263 263 263 264 264 264 264
271 270 270 270 269 268 268 267 267 267 267 267 266 266 266 266 267 267 267 266 266 266 265 265 265 265 265 265 265 265 265 265 265 264 264 264 264 264 263 263 263 263 264
Wind_Speed
13 14 15 17 19 21 19 14 11 11 12 11 10 10 9 8 7 6 6 4 3 3 3 4 5 7 8 10 11 11 11 12 13 23 20 27 28 27 29 29 29 30 32
15 16 18 19 20 20 19 16 12 12 12 12 12 11 10 10 10 8 8 7 5 5 5 6 7 9 10 11 12 13 13 13 14 21 24 24 25 28 30 30 28 28 29
16 17 18 20 21 20 18 17 15 14 13 14 14 13 13 11 10 9 7 6 5 5 6 7 9 10 12 12 13 14 14 13 16 20 25 23 25 27 32 30 31 32 29
17 18 18 19 19 18 18 18 18 17 16 16 15 14 12 9 8 7 5 4 4 5 7 8 9 10 10 11 12 13 15 18 18 19 22 25 26 27 27 31 36 31 32
19 19 19 20 20 21 22 21 20 18 16 15 13 11 9 6 5 4 3 4 4 4 5 7 7 7 7 9 11 13 16 19 19 20 21 23 25 28 27 31 30 36 34
20 21 22 22 22 22 21 20 18 16 14 12 10 8 6 4 2 1 2 2 3 4 6 7 8 10 11 10 11 12 13 16 19 19 22 22 26 25 29 28 31 26 21
24 24 24 24 23 21 20 18 16 14 12 10 8 7 5 3 2 2 3 4 4 5 7 8 10 11 13 14 14 14 16 15 18 22 24 23 28 27 32 27 29 30 30
25 24 24 23 23 21 19 16 14 12 10 9 8 7 5 4 4 3 5 5 6 7 8 9 12 14 15 18 19 21 20 23 20 22 25 30 30 31 30 31 30 32 30
27 26 24 23 22 20 17 15 13 13 12 10 8 6 5 4 4 4 5 7 8 6 7 8 11 13 16 16 19 23 23 21 21 24 24 25 27 26 26 28 25 20 27
29 26 24 22 20 19 17 16 15 13 10 9 7 6 5 4 4 4 1 1 4 7 8 9 12 10 12 15 20 25 23 23 26 25 30 30 26 26 24 23 24 24 21
28 25 23 21 19 18 17 16 15 12 9 8 7 6 4 3 3 2 3 3 5 8 10 14 15 14 15 18 21 23 25 26 26 30 31 29 26 26 26 26 26 24 22
27 24 22 20 18 17 15 14 12 11 9 9 8 7 5 3 3 3 3 3 5 6 10 15 16 16 19 20 21 22 21 20 25 27 26 21 22 22 26 28 27 26 28
27 24 21 20 18 17 15 14 13 11 10 8 8 8 5 3 2 3 4 5 7 9 11 13 14 17 18 20 17 19 18 20 22 23 25 23 24 27 29 29 27 28 28
28 25 23 22 20 17 15 13 13 13 11 9 9 7 4 2 2 4 6 6 8 11 12 14 17 17 15 17 19 18 16 16 19 22 24 27 28 28 25 27 28 29 26
27 25 23 20 18 17 15 13 12 11 9 9 7 6 3 2 2 4 6 8 9 10 14 16 16 17 18 18 19 19 20 20 21 20 23 25 24 26 26 27 26 23 20
26 24 24 22 20 18 17 14 13 11 10 8 7 5 4 2 3 5 4 7 9 10 12 13 13 13 14 16 18 20 19 20 20 19 19 23 23 22 25 25 24 21 19
28 28 25 23 21 20 19 17 17 12 12 11 10 10 6 7 5 4 4 6 7 8 8 10 10 11 12 14 15 17 19 20 18 17 20 20 21 22 23 21 20 21 20
25 22 23 22 22 20 19 18 17 17 17 14 14 10 10 11 4 6 6 7 7 8 8 8 9 11 12 13 14 16 18 19 18 19 19 18 19 20 21 19 19 18 18
24 23 23 21 21 20 19 19 19 18 17 15 13 12 12 9 6 10 10 9 8 7 7 7 9 10 11 12 13 14 15 16 16 18 18 18 18 19 20 20 20 20 19
24 23 24 23 23 22 21 21 20 19 17 16 15 12 11 11 13 13 11 9 8 8 8 8 8 9 10 11 12 13 14 15 15 16 18 18 18 18 18 20 19 19 18
26 26 26 25 25 24 23 24 21 20 19 17 15 14 12 12 13 14 13 12 11 10 9 9 9 10 11 12 13 14 15 16 15 16 17 17 17 19 18 18 18 18 18
28 29 29 29 26 26 26 23 22 22 20 19 17 16 12 17 17 16 14 13 12 11 10 12 12 13 13 14 14 15 17 17 16 15 17 17 17 17 18 19 19 19 18
30 28 28 28 27 25 24 24 25 24 22 20 18 17 17 17 17 17 16 14 14 14 13 14 16 16 13 13 13 14 17 17 16 17 18 19 19 19 18 19 20 20 19
30 29 29 29 28 27 28 26 24 23 21 19 19 18 18 18 17 18 17 17 16 16 17 17 17 17 17 16 16 17 18 19 20 20 19 20 22 21 19 19 20 19 19
33 32 31 30 29 29 26 25 23 22 21 20 19 19 19 19 19 19 19 19 19 19 18 18 20 20 20 20 20 20 20 21 23 22 22 22 22 22 21 20 21 20 19
34 32 30 28 27 26 24 23 22 21 21 20 20 20 20 20 21 21 21 21 21 20 21 21 22 22 22 23 23 23 23 24 24 22 20 20 21 23 23 23 22 22 21
Wind_Direction
176 169 164 164 169 168 169 184 194 184 173 171 170 163 156 148 141 145 132 117 106 87 45 22 8 350 340 339 336 331 323 317 291 303 308 313 318 317 320 319 316 314 314
167 162 161 162 163 164 157 159 175 174 164 158 153 148 137 131 123 116 106 96 83 58 33 9 356 347 342 334 332 329 322 321 311 303 314 321 322 323 322 322 321 319 316
161 160 154 153 154 150 148 151 155 155 152 142 138 133 125 116 110 103 93 80 58 32 8 354 346 339 339 337 335 335 337 331 320 312 311 316 319 325 324 321 320 316 314
161 156 153 151 151 149 147 147 147 147 146 138 132 127 122 117 109 98 87 64 34 10 356 348 343 342 341 337 344 343 336 329 321 317 313 315 321 324 322 322 319 319 316
162 157 151 149 148 147 144 143 142 144 140 131 130 126 119 115 103 82 53 31 11 356 347 346 347 350 349 2 350 341 334 329 325 322 317 316 319 323 324 318 309 313 315
162 155 152 150 147 147 144 142 142 137 135 134 131 124 115 101 84 20 357 360 359 356 6 5 0 358 3 354 344 334 329 322 318 317 312 309 309 310 314 309 306 317 317
164 159 157 155 152 150 147 146 143 142 143 139 130 126 125 107 63 13 37 25 19 8 3 357 356 356 351 345 337 330 325 315 310 309 304 304 304 308 307 311 315 308 306
166 164 163 161 156 154 153 150 148 150 150 141 131 120 114 102 88 47 48 20 9 4 359 356 351 344 346 340 330 326 320 316 317 321 313 311 310 312 313 311 308 307 306
171 170 168 168 163 159 157 155 158 157 150 143 133 132 137 128 119 86 46 38 35 23 5 355 337 329 332 327 324 322 318 316 318 318 313 310 310 310 312 313 312 317 318
177 173 172 172 170 166 168 167 163 159 157 155 156 163 163 162 144 150 35 343 21 6 344 332 339 327 320 326 324 322 314 314 322 320 318 318 319 318 319 316 314 313 313
177 174 173 174 173 174 173 168 167 170 165 167 161 152 162 159 142 104 56 23 357 337 327 334 345 343 333 322 317 312 309 311 311 315 318 319 319 321 323 320 318 312 306
175 173 173 174 174 172 175 171 172 177 171 163 159 155 153 147 138 105 70 19 342 322 328 331 339 335 323 321 315 310 304 301 304 311 317 314 313 315 319 321 320 316 313
174 174 174 173 176 178 181 185 180 178 173 162 165 164 162 151 129 76 29 4 349 339 341 335 322 322 314 319 326 320 314 306 301 304 310 309 312 317 319 323 322 320 321
176 177 179 181 181 185 188 187 185 179 176 179 183 182 170 141 75 15 8 355 342 332 327 322 318 315 315 317 317 321 322 315 318 314 309 311 317 321 320 321 322 327 329
181 180 182 186 187 186 188 189 190 190 195 199 200 197 194 200 348 339 330 332 339 333 316 316 323 327 327 332 334 336 336 334 332 323 316 315 317 322 320 325 325 322 321
184 187 191 192 193 193 192 187 185 200 202 196 192 220 221 228 262 302 312 323 334 327 320 321 325 327 329 336 338 338 340 339 337 332 327 319 322 322 323 325 327 323 317
198 198 199 199 197 197 198 199 195 198 184 199 204 214 197 230 253 277 298 298 299 304 308 309 315 319 326 333 335 338 334 336 336 330 330 327 326 326 328 327 328 328 324
206 213 213 207 205 203 205 207 208 210 208 210 212 201 209 232 238 252 272 291 284 291 298 302 310 318 323 325 329 332 330 334 335 332 334 335 333 333 332 330 330 328 326
212 213 212 213 212 211 211 210 212 214 216 216 217 224 227 236 227 243 269 276 278 278 285 294 306 314 317 318 322 324 327 330 330 329 334 337 340 338 335 334 333 334 337
214 215 216 214 212 213 213 215 217 219 221 221 222 222 228 234 236 256 265 268 269 273 282 290 297 304 309 313 316 319 322 324 326 327 331 333 336 338 335 334 338 335 334
216 216 217 216 218 220 222 221 223 226 230 231 235 230 227 257 255 262 259 259 264 271 280 291 297 299 302 303 308 310 310 312 315 318 321 325 331 333 334 333 334 335 338
219 219 219 220 221 221 224 226 228 231 232 235 233 235 233 243 252 255 259 263 268 275 282 286 286 288 291 294 299 302 302 305 309 313 316 319 323 327 330 332 336 334 334
223 224 226 228 227 227 226 228 230 231 233 236 238 241 242 247 253 257 261 264 268 273 277 277 280 281 281 282 283 289 291 296 300 301 306 308 310 314 317 321 328 330 330
228 229 230 231 229 228 229 229 231 234 237 241 240 248 250 254 259 265 268 271 273 275 275 275 275 277 279 278 276 278 282 286 288 290 293 296 298 301 304 307 313 320 322
229 229 230 230 231 232 235 233 233 239 242 246 250 253 256 260 264 268 271 273 274 274 273 273 274 274 277 280 281 282 283 283 285 287 288 286 285 287 289 294 299 304 308
233 231 232 233 234 234 235 239 239 243 248 252 255 257 260 263 267 270 273 274 275 274 273 272 274 275 277 279 281 282 283 285 286 286 283 281 282 283 286 289 292 295 295